NORTHEAST SUFFOLK  -  Air Quality Alert Air Quality Alert        NORTHERN NASSAU  -  Air Quality Alert Air Quality Alert        NORTHERN QUEENS  -  Air Quality Alert Air Quality Alert        NORTHWEST SUFFOLK  -  Air Quality Alert Air Quality Alert        SOUTHEAST SUFFOLK  -  Air Quality Alert Air Quality Alert        SOUTHERN NASSAU  -  Air Quality Alert Air Quality Alert        SOUTHERN QUEENS  -  Air Quality Alert Air Quality Alert        SOUTHWEST SUFFOLK  -  Air Quality Alert Air Quality Alert      

Active alerts

Northern Queens
  Details for Northern Queens Air Quality Alert
Southern Queens
  Details for Southern Queens Air Quality Alert
Northern Nassau
  Details for Northern Nassau Air Quality Alert
Southern Nassau
  Details for Southern Nassau Air Quality Alert
Northwest Suffolk
  Details for Northwest Suffolk Air Quality Alert
Southwest Suffolk
  Details for Southwest Suffolk Air Quality Alert
Northeast Suffolk
  Details for Northeast Suffolk Air Quality Alert
Southeast Suffolk
  Details for Southeast Suffolk Air Quality Alert


WXM80 ListenWXM80 Stop

You find our weather info also at:

UK Metoffice

WeatherCloud

Weather Underground

Northeastern Weather Network

AWEKAS

Citizen Weather Observer Program (CWOP)

HAMweather, WeatherForYou, PWS Weather


Weather Underground History page Text

Daily Summary for October 15, 2017 Units:  English    Metric   Both
« Previous Day
Next Day »
Daily Weekly Monthly Yearly Custom
  High: Low: Average:
Temperature: 74.8 °F 66.0 °F 68.6 °F
Dew Point: 69.0 °F 64.2 °F 65.9 °F
Humidity: 97 % 80 % 91 %
Wind Speed: 6.8 mph 0.0 mph 1.3 mph
Wind Gust: 11.5 mph - -
Wind:- - SW
Pressure: 30.14 in 29.74 in -
Precipitation: 0.00 in    
Historical Graphs
 
 
Tabular Data for October 15, 2017
Time Temperature Dew Point Pressure Wind Wind Speed Wind Gust Humidity Rainfall Rate (Hourly)
00:02 66.8 °F 65.3 °F 30.11 in Calm   1.0 mph 95 % 0.00 in
00:07 66.8 °F 65.3 °F 30.14 in Calm     95 % 0.00 in
00:12 66.8 °F 65.3 °F 30.14 in Calm     95 % 0.00 in
00:18 66.8 °F 65.3 °F 30.14 in Calm     95 % 0.00 in
00:20 66.8 °F 65.3 °F 30.11 in Calm     95 % 0.00 in
00:25 66.8 °F 65.3 °F 30.13 in Calm     95 % 0.00 in
00:30 66.8 °F 65.3 °F 30.13 in Calm     95 % 0.00 in
00:35 66.8 °F 65.3 °F 30.13 in Calm     95 % 0.00 in
00:41 66.8 °F 65.3 °F 30.13 in Calm     95 % 0.00 in
00:46 66.8 °F 65.3 °F 30.12 in Calm     95 % 0.00 in
00:51 66.7 °F 65.2 °F 30.12 in Calm     95 % 0.00 in
00:56 66.7 °F 65.2 °F 30.10 in Calm     95 % 0.00 in
01:01 66.7 °F 65.2 °F 30.10 in Calm     95 % 0.00 in
01:06 66.6 °F 64.8 °F 30.10 in Calm     94 % 0.00 in
01:11 66.7 °F 64.9 °F 30.12 in Calm     94 % 0.00 in
01:16 66.6 °F 64.8 °F 30.09 in Calm     94 % 0.00 in
01:21 66.6 °F 64.8 °F 30.10 in Calm     94 % 0.00 in
01:26 66.6 °F 64.8 °F 30.10 in Calm     94 % 0.00 in
01:31 66.6 °F 64.8 °F 30.10 in Calm     94 % 0.00 in
01:36 66.5 °F 64.7 °F 30.09 in Calm     94 % 0.00 in
01:40 66.5 °F 65.0 °F 30.09 in Calm     95 % 0.00 in
01:45 66.5 °F 65.0 °F 30.09 in Calm     95 % 0.00 in
01:51 66.5 °F 65.0 °F 30.09 in Calm     95 % 0.00 in
01:56 66.5 °F 65.0 °F 30.09 in Calm     95 % 0.00 in
02:01 66.5 °F 65.0 °F 30.08 in Calm   2.3 mph 95 % 0.00 in
02:05 66.4 °F 64.9 °F 30.09 in Calm     95 % 0.00 in
02:11 66.4 °F 64.9 °F 30.09 in Calm   2.0 mph 95 % 0.00 in
02:16 66.4 °F 64.9 °F 30.09 in Calm     95 % 0.00 in
02:20 66.4 °F 64.9 °F 30.09 in Calm     95 % 0.00 in
02:26 66.3 °F 64.8 °F 30.09 in Calm     95 % 0.00 in
02:31 66.3 °F 64.8 °F 30.09 in Calm   1.0 mph 95 % 0.00 in
02:36 66.4 °F 64.9 °F 30.09 in Calm   1.0 mph 95 % 0.00 in
02:41 66.3 °F 64.8 °F 30.08 in Calm   1.0 mph 95 % 0.00 in
02:46 66.3 °F 64.8 °F 30.08 in Calm   1.0 mph 95 % 0.00 in
02:51 66.3 °F 64.8 °F 30.08 in Calm   1.0 mph 95 % 0.00 in
02:55 66.3 °F 64.8 °F 30.08 in Calm     95 % 0.00 in
03:00 66.3 °F 64.8 °F 30.07 in Calm     95 % 0.00 in
03:05 66.3 °F 64.8 °F 30.07 in Calm     95 % 0.00 in
03:10 66.3 °F 64.8 °F 30.07 in Calm   1.2 mph 95 % 0.00 in
03:15 66.3 °F 64.8 °F 30.07 in Calm     95 % 0.00 in
03:20 66.3 °F 64.8 °F 30.07 in Calm     95 % 0.00 in
03:25 66.3 °F 64.8 °F 30.07 in WSW 0.1 mph 1.2 mph 95 % 0.00 in
03:30 66.3 °F 64.8 °F 30.06 in Calm   1.2 mph 95 % 0.00 in
03:35 66.3 °F 64.8 °F 30.06 in Calm     95 % 0.00 in
03:41 66.3 °F 64.8 °F 30.06 in Calm     95 % 0.00 in
03:45 66.3 °F 64.8 °F 30.06 in Calm   1.0 mph 95 % 0.00 in
03:50 66.3 °F 64.8 °F 30.06 in Calm     95 % 0.00 in
03:55 66.3 °F 64.8 °F 30.06 in Calm     95 % 0.00 in
03:58 66.2 °F 64.7 °F 30.06 in Calm     95 % 0.00 in
04:01 66.2 °F 64.7 °F 30.05 in Calm     95 % 0.00 in
04:06 66.2 °F 64.7 °F 30.06 in Calm     95 % 0.00 in
04:11 66.2 °F 64.7 °F 30.05 in Calm     95 % 0.00 in
04:16 66.2 °F 64.7 °F 30.05 in Calm     95 % 0.00 in
04:21 66.2 °F 64.7 °F 30.05 in Calm     95 % 0.00 in
04:26 66.2 °F 64.7 °F 30.08 in Calm     95 % 0.00 in
04:31 66.2 °F 64.7 °F 30.08 in Calm     95 % 0.00 in
04:36 66.1 °F 64.6 °F 30.05 in Calm     95 % 0.00 in
04:41 66.1 °F 64.6 °F 30.04 in Calm     95 % 0.00 in
04:46 66.1 °F 64.6 °F 30.05 in Calm     95 % 0.00 in
04:48 66.1 °F 64.6 °F 30.05 in Calm     95 % 0.00 in
04:53 66.1 °F 64.6 °F 30.07 in Calm     95 % 0.00 in
04:58 66.1 °F 64.6 °F 30.08 in Calm     95 % 0.00 in
05:03 66.1 °F 64.6 °F 30.07 in Calm     95 % 0.00 in
05:08 66.1 °F 64.6 °F 30.04 in Calm     95 % 0.00 in
05:13 66.1 °F 64.6 °F 30.07 in Calm     95 % 0.00 in
05:18 66.1 °F 64.9 °F 30.04 in Calm     96 % 0.00 in
05:23 66.1 °F 64.9 °F 30.05 in Calm     96 % 0.00 in
05:28 66.1 °F 64.9 °F 30.05 in Calm     96 % 0.00 in
05:33 66.1 °F 64.9 °F 30.04 in Calm     96 % 0.00 in
05:38 66.1 °F 64.6 °F 30.05 in Calm     95 % 0.00 in
05:43 66.1 °F 64.9 °F 30.05 in Calm     96 % 0.00 in
05:48 66.1 °F 64.9 °F 30.04 in Calm     96 % 0.00 in
05:53 66.0 °F 64.8 °F 30.04 in Calm     96 % 0.00 in
05:59 66.1 °F 64.9 °F 30.04 in Calm     96 % 0.00 in
06:04 66.1 °F 64.9 °F 30.03 in Calm     96 % 0.00 in
06:09 66.1 °F 64.9 °F 30.03 in Calm     96 % 0.00 in
06:14 66.1 °F 64.9 °F 30.03 in Calm     96 % 0.00 in
06:19 66.1 °F 64.9 °F 30.02 in Calm     96 % 0.00 in
06:24 66.1 °F 64.9 °F 30.02 in Calm     96 % 0.00 in
06:29 66.1 °F 64.9 °F 30.02 in Calm     96 % 0.00 in
06:34 66.1 °F 64.9 °F 30.02 in Calm     96 % 0.00 in
06:39 66.1 °F 64.9 °F 30.02 in Calm     96 % 0.00 in
06:44 66.1 °F 64.9 °F 30.02 in Calm     96 % 0.00 in
06:49 66.1 °F 64.9 °F 30.02 in Calm     96 % 0.00 in
06:54 66.1 °F 64.9 °F 30.02 in Calm     96 % 0.00 in
06:59 66.1 °F 64.9 °F 30.02 in Calm     96 % 0.00 in
07:04 66.1 °F 64.9 °F 30.02 in Calm     96 % 0.00 in
07:09 66.1 °F 64.9 °F 30.02 in Calm   1.2 mph 96 % 0.00 in
07:15 66.1 °F 64.9 °F 30.02 in Calm     96 % 0.00 in
07:20 66.1 °F 64.9 °F 30.01 in Calm     96 % 0.00 in
07:25 66.1 °F 64.9 °F 30.01 in Calm     96 % 0.00 in
07:30 66.1 °F 64.9 °F 30.01 in Calm     96 % 0.00 in
07:35 66.1 °F 64.9 °F 30.01 in Calm     96 % 0.00 in
07:40 66.1 °F 64.9 °F 30.02 in Calm     96 % 0.00 in
07:45 66.2 °F 65.0 °F 30.02 in Calm     96 % 0.00 in
07:50 66.2 °F 65.0 °F 30.01 in Calm     96 % 0.00 in
07:55 66.2 °F 65.0 °F 30.02 in Calm     96 % 0.00 in
08:00 66.2 °F 65.0 °F 30.02 in Calm     96 % 0.00 in
08:05 66.3 °F 65.1 °F 30.02 in Calm     96 % 0.00 in
08:10 66.3 °F 65.1 °F 30.02 in Calm     96 % 0.00 in
08:15 66.4 °F 65.5 °F 30.02 in Calm     97 % 0.00 in
08:20 66.4 °F 65.5 °F 30.01 in Calm     97 % 0.00 in
08:25 66.5 °F 65.6 °F 30.01 in WSW 1.3 mph 2.3 mph 97 % 0.00 in
08:31 66.5 °F 65.6 °F 30.01 in Calm     97 % 0.00 in
08:36 66.6 °F 65.7 °F 30.02 in Calm   2.3 mph 97 % 0.00 in
08:41 66.7 °F 65.8 °F 30.01 in Calm   1.0 mph 97 % 0.00 in
08:46 66.8 °F 65.9 °F 30.01 in WSW 1.0 mph 3.0 mph 97 % 0.00 in
08:51 66.8 °F 65.9 °F 30.01 in Calm     97 % 0.00 in
08:56 66.9 °F 66.0 °F 30.01 in Calm   1.0 mph 97 % 0.00 in
09:01 66.9 °F 66.0 °F 30.01 in WSW 0.2 mph 1.2 mph 97 % 0.00 in
09:06 67.0 °F 66.1 °F 30.01 in Calm   6.0 mph 97 % 0.00 in
09:11 67.1 °F 66.2 °F 30.01 in SW 1.0 mph 5.0 mph 97 % 0.00 in
09:16 67.2 °F 66.3 °F 30.01 in SW 2.0 mph 4.0 mph 97 % 0.00 in
09:21 67.2 °F 66.3 °F 30.01 in Calm   3.0 mph 97 % 0.00 in
09:26 67.3 °F 66.4 °F 30.01 in SSW 1.8 mph 6.0 mph 97 % 0.00 in
09:31 67.4 °F 66.5 °F 30.00 in Calm     97 % 0.00 in
09:36 67.5 °F 66.6 °F 30.01 in SW 0.1 mph 2.3 mph 97 % 0.00 in
09:41 67.7 °F 66.8 °F 30.00 in SW 1.5 mph 3.5 mph 97 % 0.00 in
09:46 67.8 °F 66.9 °F 30.00 in SW 0.7 mph 3.0 mph 97 % 0.00 in
09:51 67.9 °F 67.0 °F 30.00 in SW 0.7 mph 3.5 mph 97 % 0.00 in
09:56 68.0 °F 67.1 °F 29.99 in SW 1.3 mph 3.5 mph 97 % 0.00 in
10:01 68.1 °F 67.2 °F 29.99 in Calm     97 % 0.00 in
10:06 68.2 °F 67.3 °F 29.99 in West 0.8 mph 3.5 mph 97 % 0.00 in
10:11 68.3 °F 67.4 °F 29.99 in WSW 2.0 mph 3.5 mph 97 % 0.00 in
10:16 68.3 °F 67.4 °F 29.98 in WSW 0.4 mph 2.0 mph 97 % 0.00 in
10:17 68.3 °F 67.4 °F 29.98 in WSW 0.3 mph 2.3 mph 97 % 0.00 in
10:22 68.4 °F 67.5 °F 30.01 in SSW 2.4 mph 4.6 mph 97 % 0.00 in
10:27 68.4 °F 67.5 °F 29.99 in SW 0.2 mph 3.5 mph 97 % 0.00 in
10:32 68.5 °F 67.6 °F 29.98 in SE 1.5 mph 3.5 mph 97 % 0.00 in
10:37 68.4 °F 67.5 °F 29.98 in Calm   1.2 mph 97 % 0.00 in
10:42 68.5 °F 67.6 °F 29.98 in Calm   2.3 mph 97 % 0.00 in
10:47 68.6 °F 67.7 °F 29.98 in Calm   1.0 mph 97 % 0.00 in
10:52 68.7 °F 67.5 °F 29.97 in SSE 0.5 mph 3.0 mph 96 % 0.00 in
10:57 68.7 °F 67.5 °F 29.97 in SSW 0.6 mph 2.3 mph 96 % 0.00 in
11:02 68.8 °F 67.6 °F 29.97 in SW 2.4 mph 4.6 mph 96 % 0.00 in
11:07 68.9 °F 67.7 °F 29.96 in SW 0.6 mph 3.5 mph 96 % 0.00 in
11:12 69.0 °F 67.8 °F 29.96 in SW 0.1 mph 1.2 mph 96 % 0.00 in
11:17 69.1 °F 67.9 °F 29.96 in SW 0.7 mph 2.3 mph 96 % 0.00 in
11:22 69.2 °F 67.7 °F 29.96 in South 0.5 mph 3.5 mph 95 % 0.00 in
11:27 69.3 °F 67.8 °F 29.96 in WSW 0.3 mph 3.5 mph 95 % 0.00 in
11:32 69.4 °F 67.9 °F 29.96 in SW 2.1 mph 4.6 mph 95 % 0.00 in
11:37 69.4 °F 67.6 °F 29.95 in West 1.4 mph 1.4 mph 94 % 0.00 in
11:43 69.4 °F 67.6 °F 29.96 in SW 0.5 mph 3.5 mph 94 % 0.00 in
11:48 69.4 °F 67.3 °F 29.95 in SSE 0.5 mph 2.3 mph 93 % 0.00 in
11:53 69.4 °F 67.3 °F 29.95 in SSW 1.5 mph 5.8 mph 93 % 0.00 in
11:58 69.4 °F 67.3 °F 29.95 in WSW 1.2 mph 3.0 mph 93 % 0.00 in
12:03 69.5 °F 67.4 °F 29.95 in SW 5.1 mph 8.1 mph 93 % 0.00 in
12:08 69.5 °F 67.1 °F 29.95 in SW 6.2 mph 8.0 mph 92 % 0.00 in
12:13 69.6 °F 67.2 °F 29.94 in WSW 4.2 mph 9.2 mph 92 % 0.00 in
12:18 69.7 °F 67.3 °F 29.94 in NW 3.7 mph 8.1 mph 92 % 0.00 in
12:23 69.7 °F 67.0 °F 29.93 in SSE 2.2 mph 8.1 mph 91 % 0.00 in
12:28 69.7 °F 67.0 °F 29.93 in WSW 1.3 mph 4.6 mph 91 % 0.00 in
12:33 69.8 °F 67.1 °F 29.93 in SW 2.6 mph 5.8 mph 91 % 0.00 in
12:38 69.9 °F 67.2 °F 29.93 in SSW 5.2 mph 9.2 mph 91 % 0.00 in
12:43 70.0 °F 67.3 °F 29.93 in SSW 3.8 mph 6.9 mph 91 % 0.00 in
12:48 70.1 °F 67.3 °F 29.92 in WSW 1.0 mph 3.5 mph 91 % 0.00 in
12:53 70.2 °F 67.4 °F 29.92 in SW 4.1 mph 11.5 mph 91 % 0.00 in
12:58 70.3 °F 67.5 °F 29.92 in WSW 2.1 mph 2.3 mph 91 % 0.00 in
13:03 70.4 °F 67.6 °F 29.92 in Calm   2.3 mph 91 % 0.00 in
13:08 70.6 °F 68.2 °F 29.91 in West 1.1 mph 1.1 mph 92 % 0.00 in
13:13 70.7 °F 67.9 °F 29.90 in SW 1.2 mph 3.5 mph 91 % 0.00 in
13:19 70.9 °F 68.1 °F 29.90 in SSW 2.3 mph 5.0 mph 91 % 0.00 in
13:24 71.1 °F 68.3 °F 29.90 in WSW 4.0 mph 6.0 mph 91 % 0.00 in
13:29 71.2 °F 68.1 °F 29.90 in SW 1.2 mph 3.5 mph 90 % 0.00 in
13:34 71.3 °F 68.2 °F 29.89 in Calm     90 % 0.00 in
13:39 71.5 °F 68.1 °F 29.89 in West 2.5 mph 6.9 mph 89 % 0.00 in
13:43 71.6 °F 68.2 °F 29.89 in WSW 3.8 mph 6.9 mph 89 % 0.00 in
13:49 71.7 °F 68.3 °F 29.88 in SSW 6.3 mph 7.0 mph 89 % 0.00 in
13:54 71.9 °F 68.2 °F 29.88 in South 5.1 mph 8.1 mph 88 % 0.00 in
13:59 72.0 °F 68.2 °F 29.87 in SSW 2.0 mph 5.0 mph 88 % 0.00 in
14:04 72.2 °F 68.4 °F 29.87 in SSW 2.9 mph 5.0 mph 88 % 0.00 in
14:09 72.5 °F 68.7 °F 29.86 in South 2.5 mph 4.6 mph 88 % 0.00 in
14:14 73.0 °F 68.9 °F 29.86 in ESE 3.0 mph 6.9 mph 87 % 0.00 in
14:19 73.3 °F 68.9 °F 29.86 in SW 2.2 mph 4.6 mph 86 % 0.00 in
14:24 73.8 °F 69.0 °F 29.86 in SSW 5.7 mph 10.4 mph 85 % 0.00 in
14:29 74.1 °F 69.0 °F 29.86 in SW 1.9 mph 7.0 mph 84 % 0.00 in
14:34 74.4 °F 68.9 °F 29.86 in South 0.7 mph 1.2 mph 83 % 0.00 in
14:39 74.6 °F 68.7 °F 29.86 in SSW 4.0 mph 9.2 mph 82 % 0.00 in
14:44 74.8 °F 68.6 °F 29.86 in WSW 1.1 mph 4.6 mph 81 % 0.00 in
14:49 74.7 °F 68.1 °F 29.87 in SW 4.3 mph 5.8 mph 80 % 0.00 in
14:54 74.7 °F 68.5 °F 29.86 in WSW 1.2 mph 3.5 mph 81 % 0.00 in
14:59 74.6 °F 68.0 °F 29.86 in SW 4.2 mph 9.2 mph 80 % 0.00 in
15:04 74.4 °F 67.8 °F 29.85 in WSW 3.6 mph 5.8 mph 80 % 0.00 in
15:09 74.2 °F 68.0 °F 29.85 in SSW 1.5 mph 4.6 mph 81 % 0.00 in
15:14 74.2 °F 68.0 °F 29.84 in SSE 1.9 mph 3.5 mph 81 % 0.00 in
15:19 74.1 °F 68.3 °F 29.84 in SSW 1.3 mph 3.5 mph 82 % 0.00 in
15:24 74.0 °F 67.8 °F 29.84 in SW 1.6 mph 6.9 mph 81 % 0.00 in
15:29 73.9 °F 68.1 °F 29.84 in WNW 0.7 mph 2.3 mph 82 % 0.00 in
15:34 73.8 °F 68.0 °F 29.83 in WSW 0.1 mph 2.0 mph 82 % 0.00 in
15:39 73.8 °F 68.0 °F 29.83 in WSW 1.2 mph 5.8 mph 82 % 0.00 in
15:44 73.8 °F 68.3 °F 29.83 in SSW 1.7 mph 3.5 mph 83 % 0.00 in
15:49 73.7 °F 67.9 °F 29.83 in SSE 0.3 mph 2.3 mph 82 % 0.00 in
15:54 73.6 °F 68.1 °F 29.83 in SSW 1.5 mph 4.6 mph 83 % 0.00 in
15:59 73.5 °F 68.0 °F 29.82 in SSW 1.4 mph 4.0 mph 83 % 0.00 in
16:04 73.5 °F 68.0 °F 29.83 in SSW 2.0 mph 3.5 mph 83 % 0.00 in
16:09 73.4 °F 67.9 °F 29.85 in SSW 1.2 mph 6.9 mph 83 % 0.00 in
16:14 73.3 °F 67.8 °F 29.85 in SSW 0.9 mph 3.5 mph 83 % 0.00 in
16:19 73.2 °F 67.7 °F 29.82 in SSW 0.3 mph 4.6 mph 83 % 0.00 in
16:25 73.1 °F 67.6 °F 29.83 in SSW 1.7 mph 3.5 mph 83 % 0.00 in
16:30 73.0 °F 67.5 °F 29.84 in South 3.5 mph 8.1 mph 83 % 0.00 in
16:35 72.9 °F 67.4 °F 29.81 in WSW 2.2 mph 3.5 mph 83 % 0.00 in
16:40 72.8 °F 67.0 °F 29.81 in SW 2.9 mph 6.9 mph 82 % 0.00 in
16:45 72.6 °F 66.8 °F 29.80 in SW 1.0 mph 3.0 mph 82 % 0.00 in
16:50 72.5 °F 67.0 °F 29.81 in SW 0.4 mph 3.5 mph 83 % 0.00 in
16:55 72.4 °F 66.9 °F 29.81 in South 4.5 mph 8.1 mph 83 % 0.00 in
17:00 72.2 °F 66.4 °F 29.80 in SW 2.0 mph 9.2 mph 82 % 0.00 in
17:05 72.1 °F 66.3 °F 29.80 in West 4.0 mph 7.0 mph 82 % 0.00 in
17:10 72.0 °F 66.2 °F 29.80 in SSW 2.3 mph 5.0 mph 82 % 0.00 in
17:15 71.9 °F 66.1 °F 29.80 in SSW 3.3 mph 8.1 mph 82 % 0.00 in
17:20 71.8 °F 66.0 °F 29.81 in SSW 3.6 mph 6.9 mph 82 % 0.00 in
17:25 71.7 °F 65.9 °F 29.83 in SW 6.0 mph 11.5 mph 82 % 0.00 in
17:30 71.5 °F 65.7 °F 29.81 in SSW 3.9 mph 5.8 mph 82 % 0.00 in
17:35 71.5 °F 65.7 °F 29.83 in SW 2.5 mph 5.8 mph 82 % 0.00 in
17:40 71.4 °F 65.6 °F 29.82 in SSW 4.4 mph 10.4 mph 82 % 0.00 in
17:45 71.3 °F 65.5 °F 29.83 in SSW 2.1 mph 5.8 mph 82 % 0.00 in
17:51 71.2 °F 65.8 °F 29.81 in SSW 2.3 mph 4.0 mph 83 % 0.00 in
17:56 71.1 °F 65.7 °F 29.82 in SSW 3.0 mph 6.0 mph 83 % 0.00 in
18:01 71.0 °F 65.9 °F 29.81 in South 1.5 mph 3.5 mph 84 % 0.00 in
18:06 71.0 °F 65.9 °F 29.83 in SSW 2.7 mph 6.9 mph 84 % 0.00 in
18:11 70.8 °F 65.7 °F 29.83 in SSW 4.0 mph 5.8 mph 84 % 0.00 in
18:16 70.7 °F 65.6 °F 29.81 in WSW 2.9 mph 11.5 mph 84 % 0.00 in
18:21 70.6 °F 65.9 °F 29.80 in SW 2.6 mph 4.0 mph 85 % 0.00 in
18:26 70.5 °F 65.8 °F 29.83 in South 5.0 mph 6.9 mph 85 % 0.00 in
18:31 70.3 °F 65.6 °F 29.81 in SW 3.2 mph 8.1 mph 85 % 0.00 in
18:36 70.3 °F 65.6 °F 29.80 in WSW 1.5 mph 5.8 mph 85 % 0.00 in
18:41 70.2 °F 65.1 °F 29.80 in WSW 1.4 mph 4.0 mph 84 % 0.00 in
18:46 70.1 °F 65.0 °F 29.80 in WSW 0.4 mph 2.3 mph 84 % 0.00 in
18:51 70.1 °F 65.4 °F 29.80 in WSW 0.7 mph 2.0 mph 85 % 0.00 in
18:56 70.1 °F 65.4 °F 29.80 in SW 3.0 mph 5.8 mph 85 % 0.00 in
19:01 70.1 °F 65.4 °F 29.79 in SW 2.4 mph 3.5 mph 85 % 0.00 in
19:04 70.1 °F 65.7 °F 29.80 in SW 0.5 mph 3.5 mph 86 % 0.00 in
19:09 70.1 °F 65.7 °F 29.81 in WSW 0.4 mph 2.3 mph 86 % 0.00 in
19:14 70.0 °F 65.6 °F 29.80 in SE 2.1 mph 5.8 mph 86 % 0.00 in
19:19 69.9 °F 65.5 °F 29.79 in WSW 2.0 mph 4.6 mph 86 % 0.00 in
19:24 69.8 °F 65.4 °F 29.79 in SW 3.4 mph 6.9 mph 86 % 0.00 in
19:29 69.8 °F 65.4 °F 29.79 in WSW 1.4 mph 5.8 mph 86 % 0.00 in
19:34 69.7 °F 65.3 °F 29.79 in SW 2.0 mph 5.0 mph 86 % 0.00 in
19:39 69.6 °F 65.2 °F 29.79 in SSW 3.3 mph 5.8 mph 86 % 0.00 in
19:44 69.5 °F 65.1 °F 29.79 in SW 0.3 mph 3.5 mph 86 % 0.00 in
19:49 69.3 °F 65.3 °F 29.78 in SSW 1.0 mph 3.5 mph 87 % 0.00 in
19:55 69.2 °F 65.2 °F 29.78 in SW 2.6 mph 4.0 mph 87 % 0.00 in
20:00 69.1 °F 65.1 °F 29.77 in SSW 0.9 mph 4.6 mph 87 % 0.00 in
20:05 69.0 °F 65.3 °F 29.77 in SSW 1.6 mph 3.5 mph 88 % 0.00 in
20:10 68.9 °F 65.2 °F 29.79 in SSW 0.4 mph 2.3 mph 88 % 0.00 in
20:15 68.8 °F 65.1 °F 29.76 in South 2.7 mph 5.8 mph 88 % 0.00 in
20:20 68.6 °F 65.2 °F 29.76 in SW 2.6 mph 9.2 mph 89 % 0.00 in
20:25 68.5 °F 65.1 °F 29.76 in SSW 2.6 mph 7.0 mph 89 % 0.00 in
20:30 68.4 °F 65.0 °F 29.75 in SW 4.3 mph 8.1 mph 89 % 0.00 in
20:35 68.3 °F 64.9 °F 29.75 in SSW 1.4 mph 3.5 mph 89 % 0.00 in
20:40 68.2 °F 64.8 °F 29.76 in SW 4.4 mph 10.4 mph 89 % 0.00 in
20:45 68.1 °F 64.7 °F 29.78 in SSW 3.7 mph 9.2 mph 89 % 0.00 in
20:50 68.0 °F 64.6 °F 29.76 in SW 1.4 mph 3.5 mph 89 % 0.00 in
20:55 68.0 °F 64.6 °F 29.76 in SSW 3.1 mph 9.2 mph 89 % 0.00 in
21:00 68.0 °F 64.6 °F 29.76 in East 1.4 mph 8.1 mph 89 % 0.00 in
21:05 67.9 °F 64.5 °F 29.76 in North 0.2 mph 3.5 mph 89 % 0.00 in
21:10 67.9 °F 64.5 °F 29.76 in SW 3.9 mph 4.6 mph 89 % 0.00 in
21:15 67.9 °F 64.5 °F 29.76 in SSW 4.8 mph 10.4 mph 89 % 0.00 in
21:20 67.9 °F 64.2 °F 29.76 in SW 3.5 mph 8.0 mph 88 % 0.00 in
21:25 67.9 °F 64.2 °F 29.76 in West 3.8 mph 11.5 mph 88 % 0.00 in
21:30 68.0 °F 64.3 °F 29.76 in WSW 2.9 mph 3.5 mph 88 % 0.00 in
21:35 68.0 °F 64.3 °F 29.76 in SW 0.4 mph 4.6 mph 88 % 0.00 in
21:40 68.0 °F 64.3 °F 29.76 in West 3.0 mph 6.0 mph 88 % 0.00 in
21:45 68.0 °F 64.3 °F 29.76 in NW 2.2 mph 7.0 mph 88 % 0.00 in
21:50 68.0 °F 64.3 °F 29.76 in SSW 0.6 mph 4.6 mph 88 % 0.00 in
21:55 68.0 °F 64.3 °F 29.76 in SW 5.4 mph 9.2 mph 88 % 0.00 in
22:00 67.9 °F 64.5 °F 29.78 in SSW 5.5 mph 9.2 mph 89 % 0.00 in
22:05 67.9 °F 64.5 °F 29.76 in WSW 1.8 mph 5.8 mph 89 % 0.00 in
22:10 67.9 °F 64.5 °F 29.76 in SW 2.8 mph 4.6 mph 89 % 0.00 in
22:15 67.9 °F 64.5 °F 29.76 in SW 1.6 mph 5.8 mph 89 % 0.00 in
22:21 67.8 °F 64.4 °F 29.76 in SW 2.7 mph 5.8 mph 89 % 0.00 in
22:26 67.8 °F 64.8 °F 29.74 in SSW 0.5 mph 4.6 mph 90 % 0.00 in
22:31 67.8 °F 64.8 °F 29.74 in SSW 2.6 mph 8.1 mph 90 % 0.00 in
22:35 67.8 °F 65.1 °F 29.74 in SSW 2.5 mph 4.6 mph 91 % 0.00 in
22:41 67.7 °F 65.0 °F 29.75 in SSW 3.2 mph 5.0 mph 91 % 0.00 in
22:46 67.7 °F 65.0 °F 29.75 in SW 2.0 mph 7.0 mph 91 % 0.00 in
22:51 67.7 °F 65.3 °F 29.77 in SW 2.0 mph 5.0 mph 92 % 0.00 in
22:56 67.7 °F 65.3 °F 29.76 in SSW 3.0 mph 9.0 mph 92 % 0.00 in
23:01 67.8 °F 65.4 °F 29.77 in SSE 1.1 mph 6.9 mph 92 % 0.00 in
23:06 67.8 °F 65.4 °F 29.77 in SSW 2.8 mph 10.4 mph 92 % 0.00 in
23:11 67.8 °F 65.4 °F 29.76 in SW 3.9 mph 7.0 mph 92 % 0.00 in
23:16 67.8 °F 65.7 °F 29.77 in WSW 3.8 mph 5.8 mph 93 % 0.00 in
23:26 67.8 °F 65.7 °F 29.77 in SSW 1.3 mph 5.0 mph 93 % 0.00 in
23:31 67.8 °F 65.7 °F 29.76 in SW 2.1 mph 3.5 mph 93 % 0.00 in
23:36 67.8 °F 65.7 °F 29.75 in SW 2.7 mph 4.0 mph 93 % 0.00 in
23:41 67.9 °F 65.8 °F 29.75 in SSW 2.7 mph 5.8 mph 93 % 0.00 in
23:44 67.9 °F 65.8 °F 29.75 in SW 0.5 mph 3.5 mph 93 % 0.00 in
23:49 67.9 °F 65.8 °F 29.75 in SW 1.9 mph 3.5 mph 93 % 0.00 in
23:54 67.9 °F 65.8 °F 29.76 in WSW 6.8 mph 7.0 mph 93 % 0.00 in
23:59 67.9 °F 65.8 °F 29.76 in SSW 2.5 mph 6.0 mph 93 % 0.00 in
Crab Meadow Weather
Compliments of Weather Underground - 3 mb

Script developed by  Jim McMurry - jmcmurry@mwt.net Adapted for the template by  Wim van der Kuil - Leuven-Template.eu

Extremes: The most widespread U.S. cold wave was in February of 1899. It was so cold that the Mississippi River froze over its entire length, with ice as thick as two inches even in New Orleans.